Location: Carrières
(48.9495°N, 2.0407°E)
Time: 05:53:58
(UTC+00:00)

NOAA 15 - Visible Passes

Search period start: 24 September 2023 00:00
Search period end: 04 October 2023 00:00
Orbit: 796 x 811 km, 98.6° (Epoch: 23 September)

Date Brightness Start Highest point End Pass type
(mag) Time Alt. Az. Time Alt. Az. Time Alt. Az.
24 Sep 4.6 18:33:26 10° SSE 18:38:41 89° ENE 18:43:58 10° NNW visible
24 Sep 7.4 20:16:26 10° WSW 20:19:11 14° W 20:21:57 10° NW visible
25 Sep 4.7 18:08:06 10° SSE 18:13:12 57° ENE 18:18:21 10° N visible
25 Sep 6.9 19:49:13 10° SW 19:53:19 23° W 19:57:28 10° NW visible
26 Sep 6.1 19:22:45 10° SSW 19:27:34 37° W 19:32:26 10° NNW visible
27 Sep 5.2 18:56:45 10° S 19:01:54 60° WSW 19:07:07 10° NNW visible
28 Sep 4.6 18:31:06 10° SSE 18:36:20 86° ENE 18:41:38 10° NNW visible
28 Sep 7.4 20:13:54 10° WSW 20:16:49 15° W 20:19:45 10° NW visible
29 Sep 4.7 18:05:47 10° SE 18:10:52 55° ENE 18:16:00 10° N visible
29 Sep 6.8 19:46:46 10° SW 19:50:57 24° W 19:55:11 10° NW visible
30 Sep 6.0 19:20:21 10° SSW 19:25:12 38° W 19:30:07 10° NNW visible
01 Oct 5.1 18:54:22 10° S 18:59:33 62° WSW 19:04:47 10° NNW visible
02 Oct 4.5 18:28:45 10° SSE 18:33:59 83° ENE 18:39:17 10° NNW visible
02 Oct 7.3 20:11:21 10° SW 20:14:26 16° W 20:17:32 10° NW visible
03 Oct 4.8 18:03:28 10° SE 18:08:32 52° ENE 18:13:38 10° N visible
03 Oct 6.7 19:44:18 10° SSW 19:48:35 25° W 19:52:55 10° NW visible
